Content
SEND FEEDBACK

Daily
Averages
Monthly
Summary
United States of America

NEW HAVEN, CONNECTICUT


Home > North America > United States > Connecticut
Elevation: 14 feet     Latitude: 41 15N     Longitude: 072 53W

WEATHER
 
SELECT A DAY
Number of Records: 176,511;   Date Range: 1/1/95 - 9/18/14
 
SHARE

PRINT THIS DATA

[ ← Previous Day ]
WEATHER ALMANAC - JANUARY 31, 2013
[ Next Day → ]
[ °C ]   °F
Weather ElementAverageHighLow
Temperature48.1 °F57.9 °F (2:53 am)32 °F (11:53 pm)
Dewpoint34.8 °F54 °F (3:53 am)14 °F (8:53 pm)
Humidity63.5 %94 % (5:53 am)31 % (3:53 pm)
Barometer29.33 in29.72 in (11:53 pm)29.07 in (6:53 am)
Wind Speed19.8 mph38 mph (4:36 am)
Wind Gust52.9 mph (4:36 am)
Weather ElementAverage
Visibility8.1 mi
Wind DirectionWSW (232.8 °)

Weather ElementTotal
Precipitation0.39 in
Heating Degree Days20.1 (Base 65)
Averaged from 29 records on January 31, 2013
WEATHER CONDITIONS BREAKOUT
WIND DIRECTION BREAKOUT
WEATHER BY HOUR - JANUARY 31, 2013
[ °C ]   °F
Local TimeTemperatureDewpointHumidityBarometerVisibilityWind DirectionWind SpeedGust SpeedPrecipitationEventsConditions
1:51 AM57.2 °F53.6 °F88 %29.32 in6.0 miSSW (200°)26.5 mph40.3 mph0.00 inRainLight Rain
1:53 AM57.0 °F53.1 °F87 %29.32 in6.0 miSSW (200°)24.2 mph40.3 mph0.00 inRainLight Rain
2:53 AM57.9 °F53.1 °F84 %29.24 in7.0 miSouth (190°)28.8 mph42.6 mph0.00 inRainLight Rain
3:53 AM57.9 °F54.0 °F87 %29.15 in7.0 miSouth (190°)29.9 mph47.2 mph0.00 inRainLight Rain
4:36 AM57.2 °F53.6 °F88 %29.09 in1.8 miSouth (190°)38.0 mph52.9 mph0.07 inRainHeavy Rain
4:50 AM57.2 °F53.6 °F88 %29.08 in2.0 miSouth (190°)35.7 mph51.8 mph0.11 inRainHeavy Rain
4:53 AM57.0 °F54.0 °F89 %29.09 in1.8 miSouth (190°)29.9 mph51.8 mph0.13 inRainHeavy Rain
5:01 AM57.2 °F53.6 °F88 %29.10 in3.0 miSSW (200°)26.5 mph43.7 mph0.01 inRainLight Rain
5:39 AM53.6 °F50.0 °F88 %29.14 in5.0 miSSW (210°)20.7 mph33.4 mph0.06 inRainRain
5:53 AM53.6 °F51.8 °F94 %29.12 in5.0 miSSW (200°)15.0 mph27.6 mphRainRain
6:53 AM51.1 °F48.0 °F89 %29.07 in9.0 miSouth (170°)15.0 mph23.0 mph0.01 inOvercast
7:50 AM51.8 °F48.2 °F88 %29.07 in10.0 miSW (220°)19.6 mph32.2 mphMostly Cloudy
7:53 AM52.0 °F48.0 °F86 %29.07 in10.0 miSW (220°)19.6 mph35.7 mphMostly Cloudy
8:53 AM51.1 °F37.9 °F61 %29.15 in10.0 miWSW (250°)15.0 mph20.7 mph0.00 inOvercast
9:53 AM48.9 °F35.1 °F59 %29.23 in10.0 miWest (280°)17.3 mph26.5 mphMostly Cloudy
10:53 AM48.0 °F28.9 °F48 %29.30 in10.0 miWest (280°)20.7 mph32.2 mphMostly Cloudy
11:53 AM46.9 °F25.0 °F42 %29.32 in10.0 miWNW (290°)16.1 mph34.5 mphMostly Cloudy
12:53 PM46.9 °F26.1 °F44 %29.34 in10.0 miWest (270°)10.4 mph32.2 mphMostly Cloudy
1:53 PM46.0 °F18.0 °F33 %29.38 in10.0 miWest (280°)17.3 mph36.8 mphScattered Clouds
2:53 PM46.0 °F21.9 °F39 %29.41 in10.0 miWest (260°)12.7 mph18.4 mphScattered Clouds
3:53 PM46.0 °F17.1 °F31 %29.44 in10.0 miWest (260°)15.0 mph31.1 mphMostly Cloudy
4:53 PM43.0 °F17.1 °F35 %29.49 in10.0 miWSW (250°)18.4 mph29.9 mphScattered Clouds
5:53 PM39.9 °F18.0 °F41 %29.55 in10.0 miWSW (250°)13.8 mph27.6 mphScattered Clouds
6:53 PM39.0 °F15.1 °F38 %29.60 in10.0 miWest (260°)16.1 mph28.8 mphPartly Cloudy
7:53 PM37.0 °F15.1 °F41 %29.64 in10.0 miWSW (250°)16.1 mph34.5 mphScattered Clouds
8:53 PM36.0 °F14.0 °F41 %29.67 in10.0 miWSW (250°)11.5 mph21.9 mphPartly Cloudy
9:53 PM35.1 °F15.1 °F44 %29.68 in10.0 miWSW (250°)18.4 mph29.9 mphClear
10:53 PM33.1 °F17.1 °F52 %29.70 in10.0 miWSW (250°)12.7 mph26.5 mphClear
11:53 PM32.0 °F14.0 °F48 %29.72 in10.0 miWSW (250°)12.7 mph25.3 mphClear
Hourly data recorded from KHVN, located miles away from New Haven, Connecticut







STORIES FROM OUR PARTNERS